When you browse on this site, cookies collect data to enhance your experience and personalize the content and advertising you see.
Visit our Privacy Policy to learn more. By continuing to use the site, you agree to this use of cookies and data.
  • In Hungary
  • List of Countries
  • For 7 days
  • Water Temperature
  • Weather Map
  • News
  • Weather Widgets
  • user-avatar
    Login

    Hourly Weather Porszewice

    Today, 6 December, Friday

    Time Temperature Precipitation Wind Pressure Humidity
    00:00 -4°C° 0 mm 5 mps 748 mmHg 69%
    01:00 -3°C° 0 mm 4 mps 747 mmHg 71%
    02:00 -4°C° 0 mm 5 mps 747 mmHg 71%
    03:00 -4°C° 0 mm 5 mps 746 mmHg 71%
    04:00 -4°C° 0 mm 5 mps 746 mmHg 71%
    05:00 -4°C° 0 mm 6 mps 746 mmHg 69%
    06:00 -4°C° 0 mm 6 mps 746 mmHg 68%
    07:00 -4°C° 0 mm 5 mps 746 mmHg 67%
    08:00 -3°C° 0 mm 6 mps 745 mmHg 63%
    09:00 -3°C° 0 mm 7 mps 745 mmHg 60%
    10:00 -2°C° 0 mm 7 mps 744 mmHg 56%
    11:00 -1°C° 0 mm 7 mps 744 mmHg 53%
    12:00 0°C° 0 mm 7 mps 744 mmHg 49%
    13:00 0°C° 0 mm 7 mps 744 mmHg 46%
    14:00 0°C° 0 mm 7 mps 744 mmHg 48%
    15:00 -1°C° 0 mm 6 mps 743 mmHg 50%
    16:00 -2°C° 0 mm 6 mps 743 mmHg 52%
    17:00 -2°C° 0 mm 6 mps 743 mmHg 53%
    18:00 -2°C° 0 mm 6 mps 743 mmHg 54%
    19:00 -2°C° 0 mm 6 mps 743 mmHg 55%
    20:00 -2°C° 0 mm 6 mps 742 mmHg 56%
    21:00 -2°C° 0 mm 6 mps 742 mmHg 56%
    22:00 -2°C° 0 mm 6 mps 742 mmHg 57%
    23:00 -2°C° 0 mm 6 mps 742 mmHg 57%

    Tomorrow, 7 December, Saturday

    Time Temperature Precipitation Wind Pressure Humidity
    00:00 -2°C° 0 mm 6 mps 741 mmHg 57%
    01:00 -2°C° 0 mm 6 mps 741 mmHg 57%
    02:00 -2°C° 0 mm 6 mps 740 mmHg 57%
    03:00 -1°C° 0 mm 7 mps 740 mmHg 57%
    04:00 -1°C° 0 mm 7 mps 739 mmHg 58%
    05:00 -1°C° 0 mm 7 mps 739 mmHg 59%
    06:00 0°C° 0 mm 7 mps 739 mmHg 61%
    07:00 0°C° 0 mm 8 mps 739 mmHg 63%
    08:00 0°C° 0.1 mm 8 mps 739 mmHg 68%
    09:00 +1°C° 0.1 mm 8 mps 739 mmHg 74%
    10:00 +1°C° 0.1 mm 8 mps 739 mmHg 80%
    11:00 +2°C° 0 mm 8 mps 738 mmHg 80%
    12:00 +2°C° 0 mm 8 mps 738 mmHg 80%
    13:00 +4°C° 0 mm 7 mps 738 mmHg 80%
    14:00 +4°C° 0.2 mm 8 mps 738 mmHg 83%
    15:00 +4°C° 0.2 mm 8 mps 738 mmHg 86%
    16:00 +4°C° 0.2 mm 8 mps 738 mmHg 89%
    17:00 +4°C° 0.3 mm 8 mps 739 mmHg 88%
    18:00 +5°C° 0.3 mm 8 mps 739 mmHg 87%
    19:00 +5°C° 0.3 mm 7 mps 740 mmHg 86%
    20:00 +4°C° 0.3 mm 7 mps 740 mmHg 87%
    21:00 +4°C° 0.3 mm 7 mps 740 mmHg 88%
    22:00 +4°C° 0.3 mm 7 mps 740 mmHg 89%
    23:00 +4°C° 0.5 mm 6 mps 741 mmHg 90%

    Day after tomorrow, 8 December, Sunday

    Time Temperature Precipitation Wind Pressure Humidity
    00:00 +4°C° 0.5 mm 6 mps 741 mmHg 91%
    01:00 +4°C° 0.5 mm 6 mps 741 mmHg 91%
    02:00 +5°C° 0.1 mm 5 mps 741 mmHg 91%
    03:00 +3°C° 0.1 mm 5 mps 741 mmHg 91%
    04:00 +3°C° 0.1 mm 5 mps 741 mmHg 91%
    05:00 +3°C° 0 mm 5 mps 741 mmHg 90%
    06:00 +3°C° 0 mm 5 mps 742 mmHg 90%
    07:00 +3°C° 0 mm 6 mps 742 mmHg 89%
    08:00 +4°C° 0 mm 6 mps 742 mmHg 86%
    09:00 +4°C° 0 mm 6 mps 741 mmHg 83%
    10:00 +4°C° 0 mm 6 mps 741 mmHg 80%
    11:00 +4°C° 0 mm 6 mps 741 mmHg 77%
    12:00 +5°C° 0 mm 6 mps 740 mmHg 73%
    13:00 +5°C° 0 mm 7 mps 740 mmHg 69%
    14:00 +5°C° 0 mm 7 mps 739 mmHg 70%
    15:00 +5°C° 0 mm 7 mps 739 mmHg 71%
    16:00 +4°C° 0 mm 7 mps 738 mmHg 71%
    17:00 +5°C° 0 mm 8 mps 737 mmHg 71%
    18:00 +5°C° 0 mm 8 mps 737 mmHg 70%
    19:00 +5°C° 0 mm 8 mps 737 mmHg 70%
    20:00 +5°C° 0.2 mm 8 mps 736 mmHg 74%
    21:00 +5°C° 0.2 mm 9 mps 736 mmHg 78%
    22:00 +5°C° 0.2 mm 9 mps 735 mmHg 83%
    23:00 +5°C° 0.2 mm 8 mps 735 mmHg 83%

    9 December, Monday

    Time Temperature Precipitation Wind Pressure Humidity
    00:00 +5°C° 0.2 mm 8 mps 735 mmHg 83%
    01:00 +6°C° 0.2 mm 7 mps 735 mmHg 83%
    02:00 +6°C° 0.2 mm 8 mps 734 mmHg 84%
    03:00 +6°C° 0.2 mm 8 mps 734 mmHg 85%
    04:00 +6°C° 0.2 mm 8 mps 734 mmHg 86%
    05:00 +5°C° 0.4 mm 7 mps 734 mmHg 85%
    06:00 +5°C° 0.4 mm 6 mps 734 mmHg 84%
    07:00 +6°C° 0.4 mm 4 mps 734 mmHg 83%
    08:00 +6°C° 0.1 mm 5 mps 734 mmHg 81%
    09:00 +6°C° 0.1 mm 5 mps 734 mmHg 80%
    10:00 +7°C° 0.1 mm 5 mps 734 mmHg 79%
    11:00 +6°C° 0 mm 5 mps 734 mmHg 76%
    12:00 +6°C° 0 mm 5 mps 734 mmHg 73%
    13:00 +6°C° 0 mm 5 mps 734 mmHg 71%
    14:00 +6°C° 0 mm 4 mps 734 mmHg 73%
    15:00 +5°C° 0 mm 3 mps 733 mmHg 75%
    16:00 +5°C° 0 mm 3 mps 733 mmHg 77%
    17:00 +4°C° 0 mm 3 mps 733 mmHg 77%
    18:00 +4°C° 0 mm 4 mps 734 mmHg 76%
    19:00 +4°C° 0 mm 4 mps 734 mmHg 75%
    20:00 +4°C° 0 mm 4 mps 734 mmHg 76%
    21:00 +3°C° 0 mm 4 mps 734 mmHg 77%
    22:00 +3°C° 0 mm 4 mps 733 mmHg 78%
    23:00 +3°C° 0 mm 4 mps 733 mmHg 79%

    10 December, Tuesday

    Time Temperature Precipitation Wind Pressure Humidity
    00:00 +3°C° 0 mm 4 mps 733 mmHg 81%
    01:00 +1°C° 0 mm 4 mps 733 mmHg 82%
    02:00 +1°C° 0 mm 4 mps 733 mmHg 83%
    03:00 +1°C° 0 mm 5 mps 733 mmHg 83%
    04:00 +1°C° 0 mm 5 mps 733 mmHg 83%
    05:00 +2°C° 0 mm 5 mps 734 mmHg 84%
    06:00 +2°C° 0 mm 5 mps 734 mmHg 85%
    07:00 +2°C° 0 mm 5 mps 734 mmHg 85%
    08:00 +2°C° 0.2 mm 6 mps 735 mmHg 87%
    09:00 +2°C° 0.2 mm 6 mps 735 mmHg 88%
    10:00 +2°C° 0.2 mm 7 mps 736 mmHg 90%
    11:00 +2°C° 0.4 mm 7 mps 737 mmHg 88%
    12:00 +2°C° 0.4 mm 7 mps 737 mmHg 87%
    13:00 +2°C° 0.4 mm 7 mps 738 mmHg 86%
    14:00 +2°C° 0 mm 7 mps 739 mmHg 84%
    15:00 +1°C° 0 mm 8 mps 740 mmHg 81%
    16:00 0°C° 0 mm 8 mps 740 mmHg 79%
    17:00 0°C° 0.1 mm 8 mps 742 mmHg 80%
    18:00 -1°C° 0.1 mm 8 mps 743 mmHg 82%
    19:00 -1°C° 0.1 mm 8 mps 744 mmHg 83%
    20:00 -1°C° 0 mm 8 mps 745 mmHg 83%
    21:00 -2°C° 0 mm 7 mps 745 mmHg 84%
    22:00 -2°C° 0 mm 6 mps 746 mmHg 84%
    23:00 -2°C° 0 mm 6 mps 746 mmHg 82%

    11 December, Wednesday

    Time Temperature Precipitation Wind Pressure Humidity
    00:00 -2°C° 0 mm 5 mps 747 mmHg 81%
    01:00 -2°C° 0 mm 4 mps 747 mmHg 80%
    02:00 -3°C° 0 mm 4 mps 747 mmHg 80%
    03:00 -2°C° 0 mm 3 mps 747 mmHg 80%
    04:00 -2°C° 0 mm 2 mps 748 mmHg 79%
    05:00 -3°C° 0 mm 2 mps 747 mmHg 78%
    06:00 -3°C° 0 mm 2 mps 747 mmHg 77%
    07:00 -3°C° 0 mm 2 mps 747 mmHg 75%
    08:00 -2°C° 0 mm 3 mps 746 mmHg 70%
    09:00 -3°C° 0 mm 4 mps 746 mmHg 65%
    10:00 -2°C° 0 mm 4 mps 746 mmHg 59%
    11:00 -2°C° 0 mm 5 mps 745 mmHg 55%
    12:00 -1°C° 0 mm 5 mps 744 mmHg 50%
    13:00 0°C° 0 mm 5 mps 744 mmHg 46%
    14:00 -1°C° 0 mm 5 mps 743 mmHg 45%
    15:00 -1°C° 0 mm 5 mps 743 mmHg 44%
    16:00 -1°C° 0 mm 5 mps 743 mmHg 43%
    17:00 -2°C° 0 mm 6 mps 742 mmHg 43%
    18:00 -2°C° 0 mm 6 mps 742 mmHg 42%
    19:00 -2°C° 0 mm 6 mps 742 mmHg 42%
    20:00 -2°C° 0 mm 6 mps 742 mmHg 43%
    21:00 -2°C° 0 mm 6 mps 742 mmHg 44%
    22:00 0°C° 0 mm 5 mps 742 mmHg 44%
    23:00 -1°C° 0.1 mm 5 mps 741 mmHg 61%
    Show more